Home   Weather   Kirkenes   Past weeks

Flag for Norway Past Weather in Kirkenes, Norway — Yesterday and Last 2 Weeks

Now
14 °F

Passing clouds.


Feels Like: 5 °F
Forecast: 7 / 15 °F
Wind: 6 mph from West

Location: Kirkenes Lufthavn

Current Time: Dec 3, 2016 at 11:11:21 pm

Latest Report: Dec 3, 2016 at 10:20 pm


Visibility: N/A

Pressure: 29.95 "Hg

Humidity: 85%

Dew Point: 10 °F

Location of KirkenesLocation

Past Weather in Kirkenes — Graph

°F

Kirkenes Temperature Yesterday

Maximum temperature yesterday: 28 °F (at 1:20 am)
Minimum temperature yesterday: 25 °F (at 12:20 pm)
Average temperature yesterday: 27 °F

High & Low Weather Summary for the Past Weeks

 TemperatureHumidityPressure
High36 °F (Nov 19, 11:50 am)100% (Nov 22, 1:20 am)29.98 "Hg (Nov 22, 1:20 am)
Low7 °F (Nov 25, 2:20 pm)59% (Dec 2, 2:50 am)29.09 "Hg (Nov 30, 3:20 pm)
Average25 °F88%29.63 "Hg
* Reported Nov 18 9:20 pm — Dec 3 9:50 pm, Kirkenes, Weather by CustomWeather, © 2016

Note: Actual official high and low records may vary slightly from our data, if they occured in-between our weather recording intervals... More about our weather records

Advertising

Kirkenes Weather History for the Previous 24 Hours

Scroll right to see more
 ConditionsComfort  
Time TempWeatherWind HumidityBarometerVisibility
9:50 pm
Sat, Dec 3
12 °FPassing clouds.5 mph85%29.95 "HgN/A
9:20 pm14 °FCold.5 mph85%29.95 "HgN/A
8:50 pm16 °FCold.6 mph79%29.95 "HgN/A
8:20 pm16 °FCold.6 mph79%29.95 "HgN/A
7:50 pm16 °FPassing clouds.7 mph86%29.98 "HgN/A
7:20 pm16 °FClear.7 mph86%29.98 "Hg10 mi
6:50 pm16 °FClear.7 mph79%29.98 "Hg10 mi
6:20 pm18 °FClear.6 mph86%29.98 "Hg10 mi
5:50 pm16 °FClear.8 mph79%29.95 "Hg10 mi
5:20 pm16 °FCold.6 mph86%29.98 "HgN/A
4:50 pm18 °FPassing clouds.8 mph79%29.98 "HgN/A
4:20 pm19 °FCold.7 mph86%29.98 "HgN/A
3:50 pm21 °FScattered clouds.6 mph80%29.98 "HgN/A
3:20 pm21 °FPassing clouds.6 mph80%29.95 "HgN/A
2:50 pm21 °FPassing clouds.8 mph80%29.95 "HgN/A
2:20 pm23 °FPassing clouds.9 mph80%29.95 "HgN/A
1:50 pm21 °FPassing clouds.9 mph93%29.95 "HgN/A
1:20 pm23 °FPassing clouds.12 mph86%29.95 "HgN/A
12:50 pm23 °FPassing clouds.10 mph86%29.95 "HgN/A
12:20 pm23 °FPassing clouds.12 mph86%29.95 "HgN/A
11:50 am23 °FLight mixture of precip. Scattered clouds.13 mph80%29.95 "HgN/A
11:20 am23 °FScattered clouds.10 mph80%29.95 "HgN/A
10:50 am23 °FScattered clouds.12 mph80%29.95 "HgN/A
10:20 am23 °FPassing clouds.13 mph80%29.95 "HgN/A
9:50 am21 °FPassing clouds.9 mph86%29.95 "HgN/A
8:50 am25 °FPassing clouds.10 mph80%29.92 "HgN/A
8:20 am25 °FPassing clouds.15 mph86%29.92 "HgN/A
7:50 am25 °FPartly sunny.16 mph86%29.92 "HgN/A
7:20 am25 °FPassing clouds.16 mph86%29.92 "HgN/A
6:50 am25 °FCold.15 mph86%29.92 "HgN/A
6:20 am25 °FCold.14 mph86%29.89 "HgN/A
5:50 am25 °FPassing clouds.20 mph80%29.89 "HgN/A
5:20 am27 °FScattered clouds.16 mph80%29.89 "HgN/A
4:50 am27 °FScattered clouds.15 mph80%29.89 "HgN/A
4:20 am25 °FScattered clouds.12 mph80%29.89 "HgN/A
3:50 am25 °FPassing clouds.15 mph86%29.89 "HgN/A
3:20 am27 °FLight snow. Partly cloudy.18 mph80%29.89 "HgN/A
2:50 am27 °FLight snow. Partly cloudy.12 mph86%29.89 "Hg4 mi
1:50 am25 °FLight snow. Partly cloudy.20 mph93%29.86 "Hg0 mi
1:20 am25 °FLight snow. Overcast.8 mph80%29.86 "Hg2 mi
12:50 am25 °FLight snow. Partly cloudy.20 mph93%29.86 "Hg1 mi
12:20 am25 °FLight mixture of precip. Passing clouds.8 mph69%29.86 "HgN/A
11:50 pm
Fri, Dec 2
25 °FSnow flurries. Partly cloudy.17 mph86%29.86 "HgN/A
11:20 pm25 °FSnow flurries. Ice fog.14 mph93%29.86 "Hg2 mi
Weather by CustomWeather, © 2016

See weather overviewHow to use our weather pages